Location: Lake Almanor
(40.2485°N, 121.1442°W)
Time: 19:44:14
(UTC-08:00)

STARLINK-1094 - Pass Details

Date: 03 February 2020
Orbit: 349 x 351 km, 53.0° (Epoch: 21 February)

Event Time Altitude Azimuth Distance (km) Brightness Sun altitude
Rises 17:42:07 0° 308° (NW) 2,189 7.2 -3.9°
Reaches altitude 10° 17:44:09 10° 307° (NW) 1,341 6.1 -4.2°
Maximum altitude 17:47:08 80° 220° (SW) 369 2.9 -4.8°
Drops below altitude 10° 17:50:07 10° 134° (SE) 1,334 5.3 -5.3°
Enters shadow 17:54:12 -7° 133° (SE) 3,045 7.1 -6.1°
